Date,TemperatureHighF,TemperatureAvgF,TemperatureLowF,DewpointHighF,DewpointAvgF,DewpointLowF,HumidityHigh,HumidityAvg,HumidityLow,PressureMaxIn,PressureMinIn,WindSpeedMaxMPH,WindSpeedAvgMPH,GustSpeedMaxMPH,PrecipitationSumIn
2014-1-1,7,-6,-20,7,-6,-20,100,100,100,30.27,29.83,0,0,0,0.00
2014-1-2,-10,-16,-22,-10,-16,-22,100,100,100,30.27,29.91,0,0,0,0.00
2014-1-3,16,-7,-16,14,-8,-16,100,98,96,30.12,29.85,0,0,0,0.00
2014-1-4,11,-3,-17,8,-4,-17,96,96,96,30.09,29.77,0,0,0,0.00
2014-1-5,33,17,8,32,16,7,100,97,88,29.94,29.44,0,0,0,0.00
2014-1-6,38,25,10,38,24,9,100,96,84,29.44,28.94,39,10,62,0.00
2014-1-7,11,5,0,10,4,-1,96,96,96,29.68,29.18,38,14,60,0.00
2014-1-8,15,9,2,14,8,1,96,96,96,30.03,29.68,26,10,39,0.00
2014-1-9,28,11,-3,23,10,-4,96,94,84,30.30,30.00,27,6,36,0.00
2014-1-10,18,10,-4,18,9,-5,100,98,96,30.21,29.85,8,1,12,0.00
2014-1-11,46,30,18,46,30,18,100,100,100,29.85,28.76,26,4,34,0.00
2014-1-12,45,38,33,45,38,-1,100,98,23,29.59,28.82,29,12,50,0.00
2014-1-13,51,36,27,43,30,-2,100,84,23,29.62,29.35,12,2,21,0.00
2014-1-14,45,40,33,45,40,33,100,100,100,29.47,29.32,12,2,17,0.00
2014-1-15,37,31,23,37,31,23,100,100,100,29.62,29.47,15,2,24,0.00
2014-1-16,44,28,15,27,1,-12,100,35,18,29.71,29.62,6,1,10,0.00
2014-1-17,44,27,19,32,2,-9,100,37,20,29.65,29.53,8,1,12,0.00
2014-1-18,54,29,14,44,8,-7,100,45,18,29.53,29.38,9,1,15,0.00
2014-1-19,28,26,20,28,5,-13,100,46,21,29.39,29.00,30,7,45,0.00
2014-1-20,20,8,-7,17,-17,-34,96,36,22,29.71,29.12,19,6,23,0.00
2014-1-21,14,-9,-20,12,-31,-46,96,39,24,29.89,29.71,12,2,13,0.00
2014-1-22,14,-7,-24,6,-29,-49,96,39,23,29.89,29.65,12,2,16,0.00
2014-1-23,13,-6,-18,6,-30,-44,96,34,24,29.92,29.71,19,3,20,0.00
2014-1-24,13,-3,-16,12,-26,-42,96,38,24,29.98,29.38,20,3,25,0.00
2014-1-25,22,18,11,21,-3,-19,100,47,22,29.39,28.91,19,7,36,0.00
2014-1-26,11,-1,-9,-20,-29,-36,24,24,24,29.47,29.00,20,8,38,0.00
2014-1-27,22,6,-7,18,-21,-35,96,30,22,29.68,29.00,39,8,40,1.06
2014-1-28,18,3,-9,15,-19,-36,96,41,23,29.89,29.68,26,8,33,0.00
2014-1-29,18,10,3,14,-14,-26,96,40,23,29.80,29.56,22,9,26,0.00
2014-1-30,35,17,5,27,-10,-24,96,34,20,29.98,29.56,18,4,20,0.00
2014-1-31,38,26,10,30,-2,-14,100,35,19,31.89,29.50,203,20,203,0.00
2014-2-1,35,18,-2,22,-6,-23,100,35,20,29.98,29.53,9,1,13,0.00
2014-2-2,38,28,11,33,6,-13,100,46,20,29.89,29.50,16,3,18,0.00
2014-2-3,39,13,-1,25,-12,-29,100,36,19,30.03,29.88,8,1,9,0.00
2014-2-4,34,13,-5,26,-11,-32,96,39,20,30.15,30.03,19,3,20,0.00
2014-2-5,20,13,-2,17,12,-2,100,97,88,30.06,29.62,13,4,16,0.00
2014-2-6,20,2,-14,18,2,-14,100,97,88,30.00,29.80,23,2,25,0.00
2014-2-7,23,14,4,20,13,3,100,94,88,29.83,29.77,29,10,39,0.00
2014-2-8,28,12,-2,23,9,-30,96,88,24,29.91,29.83,23,8,26,0.00
2014-2-9,38,11,-4,30,0,-31,96,68,23,29.88,29.71,8,1,9,0.00
2014-2-10,35,12,-3,29,-11,-31,96,42,20,29.92,29.71,20,2,20,0.00
2014-2-11,23,2,-12,14,-22,-38,96,38,22,30.21,29.91,18,3,22,0.00
2014-2-12,25,2,-18,20,-21,-44,96,39,22,30.27,29.94,9,1,11,0.00
2014-2-13,23,10,-6,19,-16,-33,96,34,22,29.95,29.23,16,4,23,0.00
2014-2-14,32,25,21,26,5,-12,100,46,20,29.36,28.88,20,8,22,0.00
2014-2-15,26,19,13,22,-2,-16,100,48,21,29.56,29.35,9,3,13,0.00
2014-2-16,24,12,4,18,-12,-24,100,37,22,29.80,29.44,26,7,26,0.00
2014-2-17,33,9,-5,6,-19,-33,96,29,20,30.09,29.80,12,2,16,0.00
2014-2-18,20,9,-8,20,-15,-35,100,36,23,30.01,29.68,16,5,19,0.00
2014-2-19,39,28,19,32,4,-7,100,40,19,29.68,29.35,14,2,14,0.00
2014-2-20,46,30,23,38,2,-8,100,33,17,31.86,29.53,20,5,22,0.00
2014-2-21,54,33,10,41,17,-5,100,59,23,29.80,23.85,206,8,206,3.54
2014-2-22,50,37,30,7,-1,-7,27,20,18,29.53,24.86,204,16,407,0.00
2014-2-23,39,29,22,0,-6,-11,24,21,19,29.59,29.47,15,8,32,0.00
2014-2-24,28,18,12,-7,-14,-18,24,23,21,29.65,29.47,14,9,26,0.00
2014-2-25,20,10,0,-13,-19,-28,24,24,22,29.68,29.56,12,5,23,0.00
2014-2-26,18,8,-5,-13,-21,-33,24,24,23,29.56,29.39,18,6,36,0.00
2014-2-27,26,8,-7,-9,-21,-34,24,24,21,29.53,29.21,15,4,28,0.00
2014-2-28,16,6,-3,-15,-24,-31,24,24,23,30.09,29.53,14,7,26,0.00
2014-3-1,29,12,-4,3,-17,-31,44,25,20,30.09,29.68,8,1,15,0.00
2014-3-2,35,16,-7,2,-15,-34,40,24,20,29.92,29.71,10,4,20,0.00
2014-3-3,27,3,-10,-8,-26,-37,24,24,21,30.01,29.80,14,5,30,0.00
2014-3-4,22,6,-4,-11,-23,-32,24,24,22,30.03,29.98,12,6,23,0.00
2014-3-5,34,9,-9,-3,-21,-36,24,23,20,30.33,30.01,9,3,16,0.00
2014-3-6,34,7,-17,-3,-23,-43,24,23,20,30.42,30.12,7,1,9,0.00
2014-3-7,44,18,-11,3,-15,-38,25,22,18,30.12,29.56,13,2,24,0.00
2014-3-8,54,28,13,44,2,-17,100,37,18,29.68,29.50,9,2,15,0.00
2014-3-9,39,21,6,28,-1,-24,96,47,19,29.77,29.50,16,4,26,0.00
2014-3-10,35,28,22,32,6,-4,100,46,20,29.50,29.15,9,2,11,0.00
2014-3-11,48,35,29,37,18,-1,100,60,18,29.42,29.09,22,4,24,0.00
2014-3-12,36,22,11,33,-2,-15,100,39,20,29.53,29.29,22,8,26,0.00
2014-3-13,35,14,4,11,-10,-20,100,37,20,29.62,29.29,20,7,24,0.00
2014-3-14,29,16,-4,25,-9,-31,100,38,20,29.71,29.26,13,3,21,0.00
2014-3-15,44,31,19,39,6,-13,100,39,18,29.65,29.15,26,7,29,0.00
2014-3-16,21,12,4,17,-13,-25,96,37,22,29.95,29.65,26,10,32,0.00
2014-3-17,30,10,-9,20,-16,-36,96,34,20,29.95,29.80,20,4,22,0.00
2014-3-18,39,16,-4,32,-9,-32,96,40,19,30.07,29.91,9,2,13,0.00
2014-3-19,37,24,11,34,1,-19,100,44,19,30.03,29.50,14,6,19,0.00
2014-3-20,40,36,33,40,28,3,100,78,24,29.50,29.23,30,8,34,0.00
2014-3-21,42,32,20,33,6,-11,100,40,18,29.71,29.26,29,10,30,0.00
2014-3-22,43,26,16,30,8,-5,100,51,20,29.71,29.32,16,4,24,0.00
2014-3-23,33,17,1,33,-7,-27,100,39,21,29.89,29.50,19,7,35,0.00
2014-3-24,32,12,-10,24,-12,-37,96,39,20,29.92,29.74,29,6,29,0.00
2014-3-25,42,22,4,24,-7,-25,96,31,18,29.74,29.65,10,4,20,0.00
2014-3-26,36,24,11,28,-2,-19,100,38,19,29.86,29.59,16,6,24,0.00
2014-3-27,33,19,0,23,-9,-28,96,32,20,29.98,29.80,11,4,20,0.00
2014-3-28,44,33,23,41,21,1,100,66,20,29.80,29.41,9,2,13,0.00
2014-3-29,46,37,33,39,11,-4,100,41,17,30.07,29.74,15,4,18,0.00
2014-3-30,36,33,30,35,14,-5,100,53,20,29.86,29.71,23,10,30,0.00
2014-3-31,61,39,26,49,10,-7,100,37,16,29.98,29.77,9,4,15,0.00
2014-4-1,50,35,21,42,11,-4,100,46,17,29.95,29.68,12,3,16,0.00
2014-4-2,44,37,29,38,7,-7,92,33,18,29.77,29.62,25,7,27,0.00
2014-4-3,52,36,26,41,6,-8,100,35,17,29.92,29.77,16,4,18,0.00
2014-4-4,49,34,19,42,8,-10,100,42,17,29.92,29.35,14,4,18,0.00
2014-4-5,47,38,34,41,20,0,100,58,19,29.62,29.29,34,11,39,0.00
2014-4-6,49,38,31,39,8,-5,88,34,18,29.83,29.62,26,10,30,0.00
2014-4-7,68,43,29,51,12,-3,100,33,15,29.86,29.53,8,2,13,0.00
2014-4-8,47,41,38,45,34,5,100,80,20,29.53,28.91,16,5,20,0.00
2014-4-9,46,37,22,40,9,-10,100,38,17,29.62,29.21,15,6,29,0.00
2014-4-10,68,45,21,46,11,-9,100,31,15,29.62,29.29,20,5,27,0.00
2014-4-11,57,46,30,42,11,-1,97,26,17,29.71,29.56,14,7,27,0.00
2014-4-12,62,52,32,16,10,2,41,18,16,29.92,29.71,15,6,30,0.00
2014-4-13,46,38,34,38,24,2,100,59,18,29.92,29.56,10,8,28,0.00
2014-4-14,68,51,38,62,40,16,100,76,17,29.59,29.18,16,4,23,0.39
2014-4-15,66,50,25,66,39,-6,100,71,24,29.65,29.06,34,8,35,0.24
2014-4-16,41,26,17,30,-2,-15,96,34,18,30.33,29.62,32,8,32,0.00
2014-4-17,50,35,18,42,10,-4,100,42,17,30.48,30.27,13,4,19,3.86
2014-4-18,51,47,39,44,15,4,100,33,19,30.15,29.85,15,4,16,0.00
2014-4-19,60,45,28,49,21,-7,100,49,17,30.15,29.83,21,4,22,0.08
2014-4-20,68,44,22,53,14,-7,100,38,15,30.24,29.85,14,2,14,0.00
2014-4-21,69,53,39,53,18,4,100,30,15,29.86,29.44,22,4,29,0.00
2014-4-22,55,52,49,53,49,27,100,91,40,29.44,29.15,16,2,16,0.51
2014-4-23,56,48,38,49,20,-1,100,42,18,29.53,29.21,19,6,25,0.00
2014-4-24,61,45,33,50,12,-3,84,31,17,29.74,29.53,24,6,26,0.00
2014-4-25,64,45,25,48,13,-8,100,32,16,29.80,29.50,12,3,18,0.00
2014-4-26,47,44,41,46,28,4,100,63,19,29.59,29.41,16,6,16,0.43
2014-4-27,64,46,37,52,29,9,100,60,16,29.89,29.59,15,5,18,0.08
2014-4-28,62,48,34,49,19,5,100,38,16,29.98,29.85,22,5,22,0.00
2014-4-29,63,51,42,50,21,6,100,38,16,30.12,29.97,22,8,24,0.00
2014-4-30,53,47,42,48,27,10,100,55,18,30.15,29.74,16,6,20,0.04
2014-5-1,68,54,48,58,41,15,100,71,18,29.74,29.32,24,5,27,0.00
2014-5-2,65,52,46,56,26,12,100,43,16,29.44,29.29,22,7,26,1.26
2014-5-3,68,54,49,59,30,14,100,47,16,29.47,29.35,16,4,22,0.04
2014-5-4,68,52,49,62,43,22,100,74,20,29.44,29.23,16,2,16,0.55
2014-5-5,66,51,43,52,21,6,100,37,15,29.62,29.44,16,5,20,0.94
2014-5-6,72,49,37,55,17,4,100,34,15,29.83,29.59,16,4,20,0.00
2014-5-7,73,51,31,55,20,2,100,35,14,29.98,29.83,16,3,20,0.00
2014-5-8,72,53,37,53,18,1,100,31,14,29.98,29.85,15,3,17,0.00
2014-5-9,70,55,44,61,21,6,100,31,15,29.89,29.53,15,5,18,0.04
2014-5-10,81,68,58,74,40,13,100,50,13,29.53,29.29,32,8,39,0.43
2014-5-11,76,62,51,56,24,10,84,27,13,29.65,29.47,34,10,34,0.00
2014-5-12,84,60,43,59,24,9,100,30,12,29.92,29.65,18,4,22,0.00
2014-5-13,75,56,45,60,24,8,100,34,14,29.98,29.80,17,4,17,0.00
2014-5-14,87,66,54,75,40,23,100,46,14,29.83,29.77,15,2,15,0.04
2014-5-15,88,73,61,73,50,27,100,55,13,29.80,29.62,22,5,29,0.00
2014-5-16,78,69,61,71,51,31,100,62,20,29.68,29.50,19,6,22,0.94
2014-5-17,66,58,48,62,39,15,100,59,17,29.80,29.47,23,7,26,1.42
2014-5-18,69,56,42,55,28,10,100,42,15,29.89,29.80,23,6,25,0.00
2014-5-19,85,62,47,59,25,6,76,30,11,29.89,29.77,12,2,15,0.00
2014-5-20,88,72,52,67,33,11,100,30,11,29.86,29.68,12,2,13,0.00
2014-5-21,88,65,49,68,34,15,100,40,12,29.74,29.59,13,2,16,0.00
2014-5-22,78,62,55,67,40,20,100,52,15,29.59,29.50,16,3,16,0.00
2014-5-23,81,61,51,67,40,21,100,52,15,29.71,29.59,15,2,17,0.00
2014-5-24,82,63,54,62,38,18,100,49,13,29.80,29.71,12,2,17,0.08
2014-5-25,86,67,54,66,46,19,100,58,13,29.77,29.56,19,3,24,0.04
2014-5-26,76,67,62,71,44,29,100,49,21,29.56,29.44,29,6,29,0.04
2014-5-27,67,55,51,67,49,35,100,82,45,29.62,29.50,14,3,19,0.75
2014-5-28,69,58,48,63,40,18,100,63,17,29.92,29.62,15,3,20,0.08
2014-5-29,80,61,43,62,37,15,100,53,12,29.95,29.80,12,2,13,0.00
2014-5-30,87,64,50,67,34,13,100,40,12,29.89,29.74,12,1,12,0.00
2014-5-31,84,62,43,64,32,16,100,45,12,30.03,29.88,13,2,16,0.00
2014-6-1,87,67,50,66,38,17,100,47,12,30.03,29.80,16,2,19,0.00
2014-6-2,92,74,55,69,39,23,100,36,12,29.80,29.59,16,4,23,0.12
2014-6-3,84,74,67,80,65,36,100,80,20,29.62,29.41,16,2,18,1.10
2014-6-4,76,65,56,73,38,19,100,44,16,29.53,29.41,22,6,22,0.04
2014-6-5,69,62,58,65,49,25,100,69,20,29.50,29.41,10,1,11,0.04
2014-6-6,90,69,60,69,44,23,100,55,12,29.62,29.47,15,2,20,0.04
2014-6-7,94,74,56,69,40,23,100,41,11,29.68,29.59,16,4,23,0.00
2014-6-8,92,73,57,69,39,21,100,37,12,29.65,29.56,15,2,19,0.00
2014-6-9,97,76,61,71,40,16,100,36,11,29.71,29.59,8,1,11,0.00
2014-6-10,87,70,57,67,31,15,100,29,13,29.83,29.68,16,2,16,0.00
2014-6-11,80,65,54,68,39,17,100,50,13,29.86,29.77,14,3,16,0.04
2014-6-12,68,64,58,68,61,37,100,93,45,29.77,29.62,12,4,16,1.18
2014-6-13,72,70,67,72,66,47,100,88,42,29.62,29.44,16,3,18,1.10
2014-6-14,78,67,55,68,46,26,100,56,18,29.74,29.44,22,4,31,0.51
2014-6-15,93,69,52,69,37,16,100,42,11,29.86,29.74,11,1,13,0.00
2014-6-16,86,67,49,66,37,19,100,43,11,29.89,29.71,9,1,12,0.00
2014-6-17,89,71,54,70,41,23,100,42,13,29.74,29.41,12,2,17,0.31
2014-6-18,90,73,60,75,47,22,100,53,13,29.68,29.38,16,3,23,0.51
2014-6-19,91,72,54,69,40,11,100,41,11,29.80,29.68,13,2,16,0.00
2014-6-20,88,64,47,59,28,14,100,32,11,29.80,29.68,11,1,16,0.00
2014-6-21,89,63,47,68,32,16,100,40,11,29.74,29.62,11,1,16,0.00
2014-6-22,91,68,49,69,39,17,100,46,11,29.71,29.68,11,1,11,0.00
2014-6-23,93,72,55,67,41,22,100,44,12,29.80,29.68,17,1,17,0.00
2014-6-24,77,70,64,73,63,43,100,81,32,29.71,29.53,7,0,9,3.03
2014-6-25,88,75,64,77,55,31,100,62,16,29.68,29.53,9,0,9,0.04
2014-6-26,94,74,61,70,39,19,100,37,12,29.74,29.62,12,1,15,0.00
2014-6-27,100,76,60,79,48,20,100,50,10,29.89,29.74,9,1,9,0.00
2014-6-28,96,76,60,75,57,28,100,64,11,29.98,29.88,11,2,16,0.00
2014-6-29,98,79,64,76,66,41,100,69,33,29.88,29.68,10,2,13,0.00
2014-6-30,94,80,72,80,56,34,100,54,14,29.68,29.50,15,3,18,0.24
2014-7-1,99,83,72,82,48,31,100,38,11,29.50,29.29,20,4,26,0.04
2014-7-2,91,79,68,83,50,32,100,44,15,29.56,29.35,18,5,27,0.00
2014-7-3,90,73,67,78,56,34,100,63,15,29.71,29.53,11,1,15,0.00
2014-7-4,92,71,56,70,46,19,100,53,12,29.77,29.62,9,0,13,0.00
2014-7-5,91,69,52,78,35,19,100,37,12,29.77,29.59,26,6,34,0.08
2014-7-6,87,74,65,69,34,20,100,29,13,29.59,29.44,27,9,36,0.00
2014-7-7,80,71,65,80,58,30,100,68,21,29.44,29.29,16,2,19,0.24
2014-7-8,96,79,69,84,57,29,100,59,11,29.39,29.09,25,4,28,0.51
2014-7-9,78,69,59,70,41,26,100,42,18,29.59,29.23,23,8,29,0.00
2014-7-10,83,67,55,65,42,18,100,51,13,29.89,29.59,16,4,21,0.00
2014-7-11,88,70,53,67,44,22,100,55,13,29.98,29.85,16,3,18,0.00
2014-7-12,92,73,59,71,64,59,100,79,48,29.91,29.71,16,3,19,0.00
2014-7-13,84,72,63,78,62,42,100,73,30,29.71,29.38,16,2,16,0.31
2014-7-14,80,71,60,76,41,23,100,43,15,29.56,29.44,18,6,22,0.04
2014-7-15,81,67,59,75,53,33,100,68,20,29.56,29.41,8,0,9,0.31
2014-7-16,82,71,63,73,48,23,100,55,15,29.56,29.41,22,5,23,0.00
2014-7-17,81,66,60,67,45,24,100,56,15,29.77,29.56,21,5,21,0.00
2014-7-18,85,71,59,73,44,25,100,49,13,29.92,29.77,18,4,20,0.00
2014-7-19,91,73,60,69,45,25,100,49,12,30.01,29.88,11,1,11,0.00
2014-7-20,96,77,65,74,40,23,100,34,11,29.89,29.77,12,2,13,0.00
2014-7-21,95,78,67,79,45,28,100,39,11,29.86,29.77,15,2,17,0.00
2014-7-22,91,78,68,77,49,32,100,45,15,29.80,29.53,21,4,24,0.00
2014-7-23,93,74,60,74,47,24,100,47,12,29.59,29.44,16,4,22,0.20
2014-7-24,84,69,51,66,36,18,100,38,12,29.68,29.59,16,3,18,0.00
2014-7-25,82,69,58,72,43,25,100,48,14,29.65,29.56,22,6,24,0.00
2014-7-26,85,70,59,72,44,23,100,47,11,29.59,29.50,22,6,23,0.04
2014-7-27,87,73,66,77,63,34,100,78,19,29.50,29.29,15,3,19,0.16
2014-7-28,69,65,62,69,65,62,100,100,100,29.41,29.29,6,0,9,0.39
2014-7-29,84,65,55,67,61,55,100,87,56,29.65,29.35,17,3,20,0.00
2014-7-30,87,67,54,73,61,54,100,84,52,29.71,29.65,13,2,16,0.04
2014-7-31,86,66,59,76,57,31,100,78,20,29.77,29.68,15,1,21,0.28
2014-8-1,90,71,59,75,46,27,100,53,13,29.86,29.77,13,2,16,0.00
2014-8-2,96,75,61,78,47,28,100,50,11,29.86,29.74,13,1,16,0.00
2014-8-3,96,77,64,73,47,23,100,48,11,29.80,29.71,12,1,15,0.00
2014-8-4,92,75,63,71,42,26,100,39,12,29.74,29.68,16,3,22,0.00
2014-8-5,89,71,64,79,56,34,100,67,19,29.71,29.62,13,1,13,0.24
2014-8-6,92,72,60,69,44,22,100,48,12,29.65,29.56,12,1,19,0.24
2014-8-7,81,64,60,70,53,28,100,72,18,29.68,29.59,7,1,9,0.12
2014-8-8,96,74,57,72,64,29,100,77,33,29.77,29.68,12,1,13,0.00
2014-8-9,101,76,57,72,47,24,100,46,11,29.83,29.74,11,1,18,0.00
2014-8-10,97,76,60,71,42,25,100,40,11,29.86,29.77,13,2,16,0.00
2014-8-11,99,79,65,76,47,26,100,47,10,29.83,29.71,12,1,12,0.00
2014-8-12,87,74,64,70,44,24,100,45,13,29.74,29.59,19,4,22,0.04
2014-8-13,74,71,66,74,69,46,100,92,46,29.59,29.38,18,3,19,2.56
2014-8-14,70,63,56,70,42,19,100,54,17,29.62,29.35,19,5,22,0.08
2014-8-15,67,60,57,65,40,26,100,53,23,29.83,29.56,12,2,18,0.00
2014-8-16,67,64,59,66,51,31,100,71,26,29.98,29.65,12,2,15,0.51
2014-8-17,90,70,62,75,44,23,100,52,12,30.27,29.74,18,3,20,0.08
2014-8-18,91,64,49,68,56,28,100,79,30,30.86,30.09,12,2,16,0.00
2014-8-19,94,67,53,72,60,53,100,82,44,31.01,30.59,10,1,11,0.00
2014-8-20,92,71,56,74,64,56,100,83,48,31.01,30.71,14,1,14,0.00
2014-8-21,88,70,65,77,65,38,100,88,33,31.01,30.95,12,1,12,0.00
2014-8-22,86,71,64,76,46,25,100,53,15,31.01,31.01,12,2,13,0.00
2014-8-23,91,73,63,76,54,27,100,64,12,31.01,31.01,9,1,12,0.00
2014-8-24,100,85,69,76,42,28,100,30,10,29.92,29.83,8,1,11,0.00
2014-8-25,94,76,64,70,45,26,100,44,11,29.89,29.80,14,3,18,0.00
2014-8-26,91,76,65,76,52,30,100,55,12,29.83,29.59,22,4,24,0.00
2014-8-27,88,74,65,74,58,24,100,65,13,29.65,29.59,16,3,18,0.00
2014-8-28,83,65,57,66,36,19,100,40,14,29.77,29.62,16,2,19,0.00
2014-8-29,87,67,55,69,51,23,100,66,13,29.95,29.77,9,0,11,0.00
2014-8-30,90,71,56,74,61,40,100,77,34,29.88,29.65,19,3,19,0.00
2014-8-31,87,76,68,86,67,42,100,79,27,29.65,29.56,19,3,22,0.47
2014-9-1,92,75,68,79,59,32,100,67,15,29.65,29.56,13,3,14,0.00
2014-9-2,87,74,68,86,65,38,100,80,23,29.56,29.41,19,3,19,0.24
2014-9-3,87,75,64,78,53,23,100,57,13,29.77,29.47,16,5,20,0.04
2014-9-4,89,73,63,73,48,27,100,53,13,29.83,29.74,14,3,19,0.00
2014-9-5,92,76,68,79,57,35,100,60,14,29.77,29.50,19,4,22,0.51
2014-9-6,78,74,52,78,68,39,100,82,50,29.71,29.47,13,4,21,0.31
2014-9-7,84,62,50,67,41,16,100,58,11,29.95,29.68,16,3,22,0.00
2014-9-8,88,67,54,68,43,19,100,53,13,30.07,29.94,9,1,13,0.00
2014-9-9,79,62,55,70,46,17,100,65,13,30.07,29.83,11,1,12,0.00
2014-9-10,87,69,54,72,45,24,100,55,13,29.86,29.56,9,1,11,0.00
2014-9-11,83,66,50,69,44,18,100,53,20,29.74,29.24,17,7,38,0.35
2014-9-12,73,53,43,58,31,12,100,53,14,30.03,29.74,11,2,15,0.00
2014-9-13,59,52,43,59,43,22,100,76,27,30.03,29.71,23,3,30,0.98
2014-9-14,62,50,42,60,31,13,100,57,19,30.03,29.85,22,3,22,0.00
2014-9-15,73,56,40,61,37,15,100,60,15,29.95,29.74,11,2,16,0.00
2014-9-16,72,59,46,63,36,14,100,51,14,29.74,29.62,15,4,22,0.00
2014-9-17,66,55,45,63,44,22,100,74,20,29.71,29.59,11,2,16,0.08
2014-9-18,77,53,32,61,30,4,100,52,13,29.98,29.62,7,0,12,0.00